Find Local Weather

World > North America > United States > Florida

Panama City, Florida Regional Weather

Lat: 30.17N, Lon: 85.67W
Wx Zone: FLZ012
Feedback
Expires:201806210900;;870538
ASUS42 KTBW 210816
RWRFL 
FLORIDA REGIONAL WEATHER ROUNDUP
NATIONAL WEATHER SERVICE TAMPA BAY RUSKIN FL
400 AM EDT THU JUN 21 2018

NOTE: "FAIR" INDICATES FEW OR NO CLOUDS BELOW 12,000 FEET WITH NO
SIGNIFICANT WEATHER AND/OR OBSTRUCTIONS TO VISIBILITY.


FLZ001>010-012>015-112-114-115-210900-
PANHANDLE FLORIDA
  
CITY           SKY/WX    TMP DP  RH WIND       PRES   REMARKS
PENSACOLA      FAIR      80  74  81 SW3       29.91S                  
PENSACOLA NAS  FAIR      79  73  82 W3        29.90F                  
MILTON NAS     FAIR      76  74  93 W6        29.92S                  
CRESTVIEW      FAIR      76  72  87 CALM      29.92F                  
DUKE FIELD     FAIR      74  72  92 CALM      29.91S                  
VALPARAISO     PTCLDY    78  74  86 CALM      29.91S                  
MARY ESTHER    CLEAR     82  76  81 W6        29.89F                  
TRI COUNTY     FAIR      77  74  90 CALM      29.91F                  
PANAMA CITY    FAIR      77  74  90 CALM      29.90S                  
TYNDALL AFB    FAIR      82  77  84 W7        29.90F                  
APALACHICOLA   FAIR      80  78  94 W5        29.90F                  

STATION/POSITION SKY/WX   TEMP    WIND        PRES    WAVE   SWELL
                          AIR SEA DIR/SP/G            HT/PER HT/PER
                          (F)     (DEG/KT/KT) (MB)    (FT/S) (FT/S)
30.1N   87.6W              84     230/ 12/ 14 1012.9S   1/ 3
29.2N   88.2W                 84  210/ 10/ 12 1013.5R   2/ 6   2/ 6
28.8N   86.0W              84 85  250/ 10/ 12 1012.9F   2/ 7   2/ 7
PANAMA CITY BEAC           83 80  270/ 13/ 15 1012.9F
TOWER C                    83     280/ 14/ 15 1013.1F

$$

SKY/WX - Weather  TMP - Temperature  DP - Dewpoint  RH - Relative Humidity
WIND - Wind Direction/Speed PRES - Barometric Pressure